N5CSU Weather Reports


Display with metric or nautical units.
time (UTC)temp
F
wind
direction
speed
MPH
gust
MPH
rain 1hr
in
rain 24hr
in
rain mn
in
humidity
%
barometer
mb
20260902215850 99 204 1.0 1.0 0.00 0.00 0.00 43 1011.3
20260902215350 99 72 1.0 1.0 0.00 0.00 0.00 43 1011.4
20260902214846 98 197 1.0 1.0 0.00 0.00 0.00 44 1011.7
20260902214344 99 51 2.0 3.0 0.00 0.00 0.00 43 1011.7
20260902213840 99 310 0.0 0.0 0.00 0.00 0.00 42 1011.7
20260902213336 99 356 0.0 0.0 0.00 0.00 0.00 42 1011.7
20260902212834 99 214 0.0 1.0 0.00 0.00 0.00 41 1011.6
20260902212331 99 145 1.0 1.0 0.00 0.00 0.00 42 1011.9
20260902211827 99 189 0.0 1.0 0.00 0.00 0.00 42 1012.0
20260902211322 99 195 0.0 0.0 0.00 0.00 0.00 42 1011.9
20260902210817 98 223 1.0 1.0 0.00 0.00 0.00 42 1011.8
20260902210312 99 189 1.0 2.0 0.00 0.00 0.00 42 1011.8
20260902205810 98 189 0.0 0.0 0.00 0.00 0.00 43 1012.0
20260902205306 98 204 1.0 1.0 0.00 0.00 0.00 43 1012.0
20260902204800 98 241 3.0 4.0 0.00 0.00 0.00 42 1012.1
20260902204255 98 202 0.0 0.0 0.00 0.00 0.00 43 1012.1
20260902203751 98 203 0.0 1.0 0.00 0.00 0.00 43 1012.2
20260902203251 99 194 0.0 0.0 0.00 0.00 0.00 42 1012.5
20260902202745 99 173 0.0 1.0 0.00 0.00 0.00 43 1012.5
20260902202242 99 187 0.0 0.0 0.00 0.00 0.00 43 1012.5
20260902201738 98 248 1.0 1.0 0.00 0.00 0.00 43 1012.5
20260902201237 98 192 0.0 0.0 0.00 0.00 0.00 44 1012.7
20260902200732 98 204 0.0 0.0 0.00 0.00 0.00 44 1012.7
20260902200223 97 134 0.0 0.0 0.00 0.00 0.00 44 1012.8
20260902195719 98 179 1.0 2.0 0.00 0.00 0.00 42 1012.9
20260902195217 97 225 0.0 0.0 0.00 0.00 0.00 43 1013.1
20260902194717 97 193 1.0 1.0 0.00 0.00 0.00 43 1013.1
20260902194212 98 198 0.0 0.0 0.00 0.00 0.00 43 1013.3
20260902193708 97 186 0.0 0.0 0.00 0.00 0.00 44 1013.2
20260902193203 98 218 0.0 0.0 0.00 0.00 0.00 42 1013.3
20260902192701 97 211 0.0 1.0 0.00 0.00 0.00 43 1013.4
20260902192200 97 215 0.0 0.0 0.00 0.00 0.00 43 1013.5
20260902191655 97 196 0.0 0.0 0.00 0.00 0.00 45 1013.7
20260902191155 97 181 0.0 1.0 0.00 0.00 0.00 46 1013.6
20260902190650 97 214 0.0 0.0 0.00 0.00 0.00 44 1013.8
20260902190145 96 160 0.0 0.0 0.00 0.00 0.00 44 1013.9
20260902185636 96 183 1.0 2.0 0.00 0.00 0.00 45 1014.1
20260902185131 96 276 0.0 1.0 0.00 0.00 0.00 45 1014.2
20260902184626 95 177 0.0 0.0 0.00 0.00 0.00 49 1014.1
20260902184121 95 195 0.0 1.0 0.00 0.00 0.00 48 1014.3
20260902183618 96 190 0.0 1.0 0.00 0.00 0.00 48 1014.3
20260902183114 95 170 0.0 0.0 0.00 0.00 0.00 48 1014.3
20260902182609 95 202 0.0 0.0 0.00 0.00 0.00 49 1014.5
20260902182106 95 268 0.0 0.0 0.00 0.00 0.00 50 1014.7
20260902181602 95 207 0.0 0.0 0.00 0.00 0.00 51 1014.7
20260902181055 95 229 0.0 1.0 0.00 0.00 0.00 51 1015.0
20260902180555 96 206 0.0 0.0 0.00 0.00 0.00 50 1015.0
20260902180051 95 215 0.0 0.0 0.00 0.00 0.00 50 1015.1
20260902175551 95 203 0.0 0.0 0.00 0.00 0.00 50 1015.4
20260902175047 94 200 0.0 1.0 0.00 0.00 0.00 51 1015.3
20260902174543 94 200 0.0 0.0 0.00 0.00 0.00 52 1015.4
20260902174038 94 197 0.0 0.0 0.00 0.00 0.00 52 1015.4
20260902173538 94 329 1.0 2.0 0.00 0.00 0.00 51 1015.4
20260902173033 94 177 1.0 2.0 0.00 0.00 0.00 54 1015.7
20260902172532 95 236 1.0 1.0 0.00 0.00 0.00 52 1015.7
20260902172028 94 202 1.0 1.0 0.00 0.00 0.00 52 1015.7
20260902171523 93 195 0.0 1.0 0.00 0.00 0.00 54 1015.9
20260902171019 93 190 0.0 0.0 0.00 0.00 0.00 57 1015.8
20260902170514 93 190 0.0 1.0 0.00 0.00 0.00 56 1015.8
20260902170010 92 180 1.0 1.0 0.00 0.00 0.00 58 1016.0
20260902165504 93 13 0.0 0.0 0.00 0.00 0.00 54 1016.3
20260902165003 93 195 0.0 0.0 0.00 0.00 0.00 57 1016.3
20260902164459 92 203 0.0 0.0 0.00 0.00 0.00 57 1016.4
20260902163957 94 138 0.0 0.0 0.00 0.00 0.00 55 1016.5
20260902163453 93 187 0.0 0.0 0.00 0.00 0.00 57 1016.4
20260902162951 92 211 0.0 0.0 0.00 0.00 0.00 57 1016.6
20260902162447 93 185 0.0 0.0 0.00 0.00 0.00 55 1016.7
20260902161946 94 183 0.0 0.0 0.00 0.00 0.00 54 1016.7
20260902161442 92 201 0.0 0.0 0.00 0.00 0.00 57 1016.7
20260902160937 93 196 0.0 0.0 0.00 0.00 0.00 56 1016.6
20260902160433 91 214 0.0 0.0 0.00 0.00 0.00 59 1016.6
20260902155931 90 194 0.0 0.0 0.00 0.00 0.00 63 1016.5
20260902155426 89 24 0.0 0.0 0.00 0.00 0.00 62 1016.6
20260902154920 88 196 0.0 0.0 0.00 0.00 0.00 64 1016.6
20260902154416 88 184 0.0 0.0 0.00 0.00 0.00 65 1016.6
20260902153915 88 198 0.0 0.0 0.00 0.00 0.00 63 1016.7
20260902153413 88 203 0.0 0.0 0.00 0.00 0.00 64 1016.6
20260902152910 88 166 0.0 0.0 0.00 0.00 0.00 65 1016.6
20260902152406 87 199 0.0 0.0 0.00 0.00 0.00 68 1016.6
20260902151901 87 98 0.0 0.0 0.00 0.00 0.00 67 1016.6
20260902151356 86 121 0.0 0.0 0.00 0.00 0.00 67 1016.5
20260902150850 86 198 0.0 0.0 0.00 0.00 0.00 68 1016.7
20260902150347 86 189 0.0 0.0 0.00 0.00 0.00 68 1016.7
20260902145846 86 188 0.0 0.0 0.00 0.00 0.00 69 1016.6
20260902145341 85 139 0.0 0.0 0.00 0.00 0.00 70 1016.4
20260902144837 85 203 0.0 0.0 0.00 0.00 0.00 71 1016.5
20260902144333 85 192 0.0 0.0 0.00 0.00 0.00 73 1016.5
20260902143828 84 204 0.0 0.0 0.00 0.00 0.00 73 1016.5
20260902143328 84 194 0.0 0.0 0.00 0.00 0.00 72 1016.5
20260902142824 84 195 0.0 0.0 0.00 0.00 0.00 73 1016.4
20260902142320 83 185 0.0 0.0 0.00 0.00 0.00 74 1016.3
20260902141814 83 198 0.0 0.0 0.00 0.00 0.00 75 1016.4
20260902141310 83 188 0.0 0.0 0.00 0.00 0.00 76 1016.3
20260902140809 83 188 0.0 0.0 0.00 0.00 0.00 76 1016.3
20260902140305 82 192 0.0 0.0 0.00 0.00 0.00 77 1016.7
20260902135804 82 179 0.0 0.0 0.00 0.00 0.00 77 1016.5
20260902135300 82 182 0.0 0.0 0.00 0.00 0.00 77 1016.4
20260902134759 82 197 0.0 0.0 0.00 0.00 0.00 79 1016.4
20260902134255 81 197 0.0 0.0 0.00 0.00 0.00 78 1016.0
20260902133750 81 180 0.0 0.0 0.00 0.00 0.00 78 1016.0
20260902133249 81 196 0.0 0.0 0.00 0.00 0.00 79 1016.3
20260902132744 80 186 0.0 0.0 0.00 0.00 0.00 79 1016.1
20260902132240 80 189 0.0 0.0 0.00 0.00 0.00 80 1016.4
20260902131736 80 189 0.0 0.0 0.00 0.00 0.00 80 1016.4
20260902131232 80 197 0.0 0.0 0.00 0.00 0.00 80 1016.3
20260902130726 79 202 0.0 0.0 0.00 0.00 0.00 79 1016.3
20260902130222 79 201 0.0 0.0 0.00 0.00 0.00 81 1016.3
20260902125717 78 208 0.0 0.0 0.00 0.00 0.00 80 1016.1
20260902125213 78 194 0.0 0.0 0.00 0.00 0.00 83 1016.1
20260902124709 78 203 0.0 0.0 0.00 0.00 0.00 82 1015.9
20260902124204 77 198 0.0 0.0 0.00 0.00 0.00 83 1015.8
20260902123659 77 205 0.0 0.0 0.00 0.00 0.00 84 1015.8
20260902123155 76 191 0.0 0.0 0.00 0.00 0.00 85 1015.8
20260902122648 76 203 0.0 0.0 0.00 0.00 0.00 86 1015.7
20260902122144 76 208 0.0 0.0 0.00 0.00 0.00 86 1015.8
20260902121638 76 208 0.0 0.0 0.00 0.00 0.00 86 1015.7
20260902121133 76 208 0.0 0.0 0.00 0.00 0.00 86 1015.8
20260902120629 76 208 0.0 0.0 0.00 0.00 0.00 86 1015.8
20260902120126 76 208 0.0 0.0 0.00 0.00 0.00 85 1015.6
20260902115620 76 208 0.0 0.0 0.00 0.00 0.00 86 1015.8
20260902115116 76 208 0.0 0.0 0.00 0.00 0.00 86 1015.7
20260902114612 76 208 0.0 0.0 0.00 0.00 0.00 86 1015.7
20260902114112 76 208 0.0 0.0 0.00 0.00 0.00 86 1015.9
20260902113608 76 208 0.0 0.0 0.00 0.00 0.00 86 1015.9
20260902113108 76 208 0.0 0.0 0.00 0.00 0.00 86 1015.9
20260902112603 76 209 0.0 0.0 0.00 0.00 0.00 86 1016.0
20260902112100 76 209 0.0 0.0 0.00 0.00 0.00 86 1015.7
20260902111555 76 209 0.0 0.0 0.00 0.00 0.00 86 1015.7
20260902111051 76 209 0.0 0.0 0.00 0.00 0.00 86 1015.7
20260902110547 76 210 0.0 0.0 0.00 0.00 0.00 86 1015.9
20260902110043 76 210 0.0 0.0 0.00 0.00 0.00 86 1015.7
20260902105538 77 210 0.0 0.0 0.00 0.00 0.00 86 1015.9
20260902105037 77 210 0.0 0.0 0.00 0.00 0.00 86 1015.8
20260902104533 77 210 0.0 0.0 0.00 0.00 0.00 85 1015.5
20260902104032 77 210 0.0 0.0 0.00 0.00 0.00 85 1015.6
20260902103528 77 210 0.0 0.0 0.00 0.00 0.00 85 1015.8
20260902103023 77 210 0.0 0.0 0.00 0.00 0.00 84 1015.7
20260902102520 77 210 0.0 0.0 0.00 0.00 0.00 84 1015.6
20260902102017 77 210 0.0 0.0 0.00 0.00 0.00 84 1015.6
20260902101512 77 210 0.0 0.0 0.00 0.00 0.00 84 1015.7
20260902101011 77 210 0.0 0.0 0.00 0.00 0.00 83 1015.8
20260902100506 77 193 0.0 0.0 0.00 0.00 0.00 82 1015.7
20260902100005 77 188 0.0 0.0 0.00 0.00 0.00 84 1015.7
20260902095500 78 187 0.0 0.0 0.00 0.00 0.00 84 1015.5
20260902094959 77 191 0.0 0.0 0.00 0.00 0.00 84 1015.7
20260902094455 78 197 0.0 0.0 0.00 0.00 0.00 83 1015.6
20260902093955 79 198 0.0 0.0 0.00 0.00 0.00 83 1015.7
20260902093456 80 199 0.0 0.0 0.00 0.00 0.00 80 1015.6
20260902092955 80 201 0.0 0.0 0.00 0.00 0.00 75 1015.5
20260902092451 80 201 0.0 0.0 0.00 0.00 0.00 75 1015.6
20260902091950 80 201 0.0 0.0 0.00 0.00 0.00 74 1015.4
20260902091445 80 201 0.0 0.0 0.00 0.00 0.00 74 1015.4
20260902090942 80 200 0.0 0.0 0.00 0.00 0.00 73 1015.5
20260902090437 81 200 0.0 0.0 0.00 0.00 0.00 73 1015.4
20260902085936 81 200 0.0 0.0 0.00 0.00 0.00 72 1015.5
20260902085431 81 200 0.0 0.0 0.00 0.00 0.00 72 1015.2
20260902084926 81 199 0.0 0.0 0.00 0.00 0.00 72 1015.3
20260902084423 81 199 0.0 0.0 0.00 0.00 0.00 72 1015.4
20260902083919 82 199 0.0 0.0 0.00 0.00 0.00 71 1015.2
20260902083418 82 199 0.0 0.0 0.00 0.00 0.00 71 1015.3
20260902082913 82 201 0.0 0.0 0.00 0.00 0.00 70 1015.3
20260902082403 82 201 0.0 0.0 0.00 0.00 0.00 70 1015.5
20260902081859 82 202 0.0 0.0 0.00 0.00 0.00 70 1015.4
20260902081356 82 201 0.0 0.0 0.00 0.00 0.00 69 1015.4
20260902080856 83 202 0.0 0.0 0.00 0.00 0.00 69 1015.2
20260902080352 83 197 0.0 0.0 0.00 0.00 0.00 69 1015.3
20260902075851 83 201 0.0 0.0 0.00 0.00 0.00 68 1015.4
20260902075348 83 203 0.0 0.0 0.00 0.00 0.00 67 1015.5
20260902074843 84 198 0.0 0.0 0.00 0.00 0.00 67 1015.4
20260902074338 84 203 0.0 0.0 0.00 0.00 0.00 67 1015.4
20260902073833 84 194 0.0 0.0 0.00 0.00 0.00 66 1015.4
20260902073330 84 177 0.0 0.0 0.00 0.00 0.00 66 1015.4
20260902072825 84 205 0.0 0.0 0.00 0.00 0.00 66 1015.2
20260902072320 84 205 0.0 0.0 0.00 0.00 0.00 66 1015.5
20260902071817 84 190 0.0 0.0 0.00 0.00 0.00 66 1015.4
20260902071312 84 196 0.0 0.0 0.00 0.00 0.00 66 1015.5
20260902070808 84 205 0.0 0.0 0.00 0.00 0.00 66 1015.4
20260902070307 85 194 0.0 0.0 0.00 0.00 0.00 65 1015.6
20260902065807 85 193 0.0 0.0 0.00 0.00 0.00 65 1015.2
20260902065302 85 198 0.0 0.0 0.00 0.00 0.00 65 1015.5
20260902064757 85 190 0.0 0.0 0.00 0.00 0.00 65 1015.4
20260902064253 85 215 0.0 0.0 0.00 0.00 0.00 66 1015.5
20260902063749 85 179 0.0 0.0 0.00 0.00 0.00 65 1015.5
20260902063243 85 191 0.0 0.0 0.00 0.00 0.00 65 1015.6
20260902062738 85 188 0.0 0.0 0.00 0.00 0.00 64 1015.4
20260902062233 85 194 0.0 0.0 0.00 0.00 0.00 64 1015.5
20260902061731 86 201 0.0 0.0 0.00 0.00 0.00 64 1015.6
20260902061227 86 200 0.0 0.0 0.00 0.00 0.00 64 1015.7
20260902060724 86 189 0.0 0.0 0.00 0.00 0.00 65 1015.5
20260902060219 86 188 0.0 0.0 0.00 0.00 0.00 65 1015.5
20260902055715 86 206 0.0 0.0 0.00 0.00 0.00 65 1015.4
20260902055211 86 209 0.0 0.0 0.00 0.00 0.00 65 1015.3
20260902054706 86 204 0.0 0.0 0.00 0.00 0.00 66 1015.4
20260902054201 86 204 0.0 0.0 0.00 0.00 0.00 66 1015.4
20260902053657 86 207 0.0 0.0 0.00 0.00 0.00 66 1015.5
20260902053156 86 202 0.0 0.0 0.00 0.00 0.00 66 1015.3
20260902052655 86 206 0.0 0.0 0.00 0.00 0.00 66 1015.4
20260902052151 86 197 0.0 0.0 0.00 0.00 0.00 66 1015.3
20260902051650 86 197 0.0 0.0 0.00 0.00 0.00 65 1015.4
20260902051145 87 198 0.0 0.0 0.00 0.00 0.00 65 1015.3
20260902050639 87 197 0.0 0.0 0.00 0.00 0.00 64 1015.3
20260902050135 87 194 0.0 0.0 0.00 0.00 0.00 64 1015.4
20260902045630 87 197 0.0 0.0 0.00 0.00 0.00 64 1015.4
20260902045126 87 24 0.0 0.0 0.00 0.00 0.00 64 1015.5
20260902044625 87 198 0.0 0.0 0.00 0.00 0.00 63 1015.3
20260902044122 87 182 0.0 0.0 0.00 0.00 0.00 63 1015.2
20260902043617 87 256 0.0 0.0 0.00 0.00 0.00 62 1015.3
20260902043112 87 159 0.0 1.0 0.00 0.00 0.00 62 1015.4
20260902042611 88 200 0.0 0.0 0.00 0.00 0.00 62 1015.3
20260902042107 88 204 0.0 0.0 0.00 0.00 0.00 62 1015.2
20260902041606 88 185 0.0 0.0 0.00 0.00 0.00 61 1015.3
20260902041101 88 170 0.0 0.0 0.00 0.00 0.00 60 1015.4
20260902040556 88 218 0.0 0.0 0.00 0.00 0.00 60 1015.3
20260902040051 89 176 0.0 0.0 0.00 0.00 0.00 59 1015.2
20260902035549 89 204 0.0 0.0 0.00 0.00 0.00 58 1015.1
20260902035045 89 114 0.0 0.0 0.00 0.00 0.00 58 1015.0
20260902034544 89 193 0.0 0.0 0.00 0.00 0.00 57 1015.1
20260902034043 87 182 0.0 0.0 0.00 0.00 0.00 58 1015.2
20260902033543 87 206 0.0 0.0 0.00 0.00 0.00 61 1014.9
20260902033038 87 200 0.0 0.0 0.00 0.00 0.00 60 1014.8
20260902032536 88 202 0.0 0.0 0.00 0.00 0.00 59 1014.6
20260902032031 88 202 0.0 0.0 0.00 0.00 0.00 58 1014.4
20260902031526 88 202 0.0 0.0 0.00 0.00 0.00 58 1014.5
20260902031022 89 202 0.0 0.0 0.00 0.00 0.00 57 1014.4
20260902030517 89 202 0.0 0.0 0.00 0.00 0.00 57 1014.4
20260902030016 89 202 0.0 0.0 0.00 0.00 0.00 56 1014.2
20260902025511 89 202 0.0 0.0 0.00 0.00 0.00 56 1014.1
20260902025006 90 204 0.0 0.0 0.00 0.00 0.00 55 1014.1
20260902024501 90 198 0.0 0.0 0.00 0.00 0.00 55 1014.2
20260902023955 90 198 0.0 0.0 0.00 0.00 0.00 54 1014.2
20260902023452 91 198 0.0 0.0 0.00 0.00 0.00 53 1014.0
20260902022951 91 202 0.0 0.0 0.00 0.00 0.00 53 1014.0
20260902022446 91 202 0.0 0.0 0.00 0.00 0.00 53 1013.8
20260902021942 91 189 0.0 0.0 0.00 0.00 0.00 52 1013.8
20260902021437 91 200 0.0 0.0 0.00 0.00 0.00 52 1013.8
20260902020932 91 196 0.0 0.0 0.00 0.00 0.00 52 1013.5
20260902020428 91 197 0.0 0.0 0.00 0.00 0.00 52 1013.7
20260902015923 91 197 0.0 0.0 0.00 0.00 0.00 53 1013.6
20260902015420 91 199 0.0 0.0 0.00 0.00 0.00 52 1013.4
20260902014915 91 197 0.0 0.0 0.00 0.00 0.00 52 1013.4
20260902014411 91 197 0.0 0.0 0.00 0.00 0.00 52 1013.5
20260902013910 91 195 0.0 0.0 0.00 0.00 0.00 51 1013.2
20260902013406 91 189 0.0 0.0 0.00 0.00 0.00 52 1013.2
20260902012901 90 204 0.0 0.0 0.00 0.00 0.00 53 1013.3
20260902012357 90 191 0.0 0.0 0.00 0.00 0.00 55 1013.3
20260902011852 90 203 0.0 0.0 0.00 0.00 0.00 54 1013.1
20260902011346 91 203 0.0 0.0 0.00 0.00 0.00 53 1013.1
20260902010840 91 203 0.0 0.0 0.00 0.00 0.00 53 1013.0
20260902010335 92 203 0.0 0.0 0.00 0.00 0.00 52 1012.8
20260902005834 92 202 0.0 0.0 0.00 0.00 0.00 51 1012.9
20260902005328 93 202 0.0 0.0 0.00 0.00 0.00 50 1013.1
20260902004824 93 202 0.0 0.0 0.00 0.00 0.00 50 1013.0
20260902004319 93 197 0.0 0.0 0.00 0.00 0.00 49 1013.0
20260902003814 94 187 0.0 0.0 0.00 0.00 0.00 49 1013.0
20260902003309 94 202 0.0 0.0 0.00 0.00 0.00 49 1012.9
20260902002805 94 202 0.0 0.0 0.00 0.00 0.00 48 1012.9
20260902002306 95 200 0.0 0.0 0.00 0.00 0.00 47 1013.0
20260902001800 95 195 0.0 0.0 0.00 0.00 0.00 47 1013.0
20260902001255 95 196 0.0 0.0 0.00 0.00 0.00 47 1013.1
20260902000755 95 193 0.0 0.0 0.00 0.00 0.00 46 1013.0
20260902000250 95 192 0.0 0.0 0.00 0.00 0.00 47 1013.1
20260901235750 95 190 0.0 0.0 0.00 0.00 0.00 47 1013.2
20260901235245 96 193 0.0 0.0 0.00 0.00 0.00 46 1013.2
20260901234744 96 178 0.0 0.0 0.00 0.00 0.00 46 1013.1
20260901234239 96 190 0.0 0.0 0.00 0.00 0.00 46 1013.2
20260901233733 96 187 0.0 0.0 0.00 0.00 0.00 45 1013.3
20260901233230 96 198 0.0 0.0 0.00 0.00 0.00 46 1013.3
20260901232724 96 190 0.0 0.0 0.00 0.00 0.00 45 1013.5
20260901232219 96 80 0.0 0.0 0.00 0.00 0.00 45 1013.5
20260901231716 96 200 0.0 0.0 0.00 0.00 0.00 45 1013.4
20260901231212 96 194 0.0 0.0 0.00 0.00 0.00 45 1013.4
20260901230707 96 191 0.0 0.0 0.00 0.00 0.00 45 1013.4
20260901230207 97 195 0.0 0.0 0.00 0.00 0.00 44 1013.2
20260901225702 97 193 0.0 0.0 0.00 0.00 0.00 44 1013.4
20260901225157 97 189 0.0 0.0 0.00 0.00 0.00 45 1013.5
20260901224653 97 184 0.0 0.0 0.00 0.00 0.00 44 1013.3
20260901224149 98 191 0.0 0.0 0.00 0.00 0.00 44 1013.4
20260901223644 98 189 0.0 0.0 0.00 0.00 0.00 43 1013.5
20260901223139 98 195 0.0 0.0 0.00 0.00 0.00 44 1013.5
20260901222635 97 199 0.0 0.0 0.00 0.00 0.00 44 1013.6
20260901222131 96 190 0.0 0.0 0.00 0.00 0.00 45 1013.5
20260901221627 97 88 0.0 0.0 0.00 0.00 0.00 45 1013.6
20260901221123 97 192 0.0 0.0 0.00 0.00 0.00 45 1013.7
20260901220621 98 192 0.0 0.0 0.00 0.00 0.00 43 1013.8
20260901220122 98 201 0.0 0.0 0.00 0.00 0.00 43 1013.5